KLM785 EHAM-TNCM

Flight info

Callsign KLM785
Flight time N/A
Altitude 32000
Route BERGI L60 PENIL M144 BAGSO DCT LIMRI/M082F320 DCT 51N020W 49N030W 44N040W/M082F340 34N050W 27N056W/M082F360 22N060W DCT OBIKE/N0474F360 L335 TRNKY
Aircraft MD11/H-SDE1E2E3FGHIJ2J3J4J5M1RWXY/LB1D1

Departure

Time 2026-04-30 09:53
Airport Amsterdam Airport Schiphol (EHAM)

Arrival

Time N/A
Airport Princess Juliana International Airport (TNCM)
Time Latitude Longitude Altitude Speed Heading
2026-04-30 09:11 52.31162 4.76791 6 ft 0 kts 303°
2026-04-30 09:29 52.31150 4.76820 8 ft 4 kts 305°
2026-04-30 09:29 52.31143 4.76836 7 ft 0 kts 306°
2026-04-30 09:34 52.31144 4.76834 6 ft 1 kts 306°
2026-04-30 09:34 52.31150 4.76826 8 ft 1 kts 324°
2026-04-30 09:34 52.31153 4.76826 8 ft 0 kts 338°
2026-04-30 09:35 52.31158 4.76825 8 ft 2 kts 347°
2026-04-30 09:35 52.31176 4.76839 8 ft 4 kts 38°
2026-04-30 09:35 52.31181 4.76873 6 ft 2 kts 87°
2026-04-30 09:35 52.31179 4.76897 6 ft 3 kts 99°
2026-04-30 09:36 52.31175 4.76920 6 ft 2 kts 101°
2026-04-30 09:36 52.31182 4.76955 6 ft 4 kts 63°
2026-04-30 09:36 52.31207 4.76998 6 ft 7 kts 44°
2026-04-30 09:36 52.31253 4.77052 7 ft 10 kts 34°
2026-04-30 09:37 52.31312 4.77116 6 ft 9 kts 32°
2026-04-30 09:37 52.31358 4.77164 6 ft 5 kts 32°
2026-04-30 09:37 52.31362 4.77168 8 ft 0 kts 32°
2026-04-30 09:43 52.31365 4.77172 6 ft 1 kts 33°
2026-04-30 09:44 52.31380 4.77184 7 ft 4 kts 21°
2026-04-30 09:44 52.31416 4.77190 6 ft 6 kts
2026-04-30 09:44 52.31469 4.77194 6 ft 9 kts
2026-04-30 09:44 52.31527 4.77201 6 ft 7 kts
2026-04-30 09:45 52.31563 4.77235 6 ft 6 kts 50°
2026-04-30 09:45 52.31581 4.77304 8 ft 8 kts 66°
2026-04-30 09:45 52.31613 4.77393 6 ft 10 kts 57°
2026-04-30 09:45 52.31658 4.77505 6 ft 13 kts 57°
2026-04-30 09:46 52.31703 4.77617 6 ft 10 kts 53°
2026-04-30 09:46 52.31752 4.77681 6 ft 8 kts 27°
2026-04-30 09:46 52.31804 4.77696 5 ft 7 kts
2026-04-30 09:46 52.31853 4.77699 5 ft 7 kts
2026-04-30 09:47 52.31906 4.77701 6 ft 8 kts
2026-04-30 09:47 52.31959 4.77707 6 ft 6 kts
2026-04-30 09:47 52.31967 4.77708 6 ft 0 kts
2026-04-30 09:48 52.31973 4.77711 6 ft 2 kts 12°
2026-04-30 09:48 52.32000 4.77725 6 ft 6 kts 21°
2026-04-30 09:48 52.32039 4.77772 7 ft 8 kts 42°
2026-04-30 09:49 52.32075 4.77825 6 ft 6 kts 42°
2026-04-30 09:49 52.32082 4.77834 6 ft 0 kts 42°
2026-04-30 09:51 52.32087 4.77842 6 ft 3 kts 41°
2026-04-30 09:51 52.32105 4.77872 6 ft 4 kts 51°
2026-04-30 09:51 52.32120 4.77923 6 ft 6 kts 74°
2026-04-30 09:51 52.32118 4.77983 6 ft 3 kts 107°
2026-04-30 09:52 52.32106 4.78000 6 ft 2 kts 148°
2026-04-30 09:52 52.32082 4.78007 6 ft 5 kts 173°
2026-04-30 09:52 52.32050 4.78007 6 ft 0 kts 183°
2026-04-30 09:52 52.32033 4.78006 6 ft 11 kts 183°
2026-04-30 09:53 52.31693 4.77975 6 ft 88 kts 183°
2026-04-30 09:53 52.30849 4.77900 4 ft 154 kts 184°
2026-04-30 09:53 52.29650 4.77776 257 ft 176 kts 176°
2026-04-30 09:53 52.28418 4.77647 1040 ft 178 kts 178°
2026-04-30 09:54 52.27199 4.77797 1820 ft 173 kts 158°
2026-04-30 09:54 52.26071 4.78335 2680 ft 166 kts 155°
2026-04-30 09:54 52.24936 4.78923 3241 ft 184 kts 156°
2026-04-30 09:54 52.23610 4.79529 3621 ft 206 kts 164°
2026-04-30 09:55 52.22076 4.79496 3895 ft 242 kts 187°
2026-04-30 09:55 52.20566 4.77977 4260 ft 271 kts 224°
2026-04-30 09:55 52.19739 4.75126 4742 ft 290 kts 256°
2026-04-30 09:55 52.19760 4.71828 5136 ft 296 kts 278°
2026-04-30 09:56 52.20230 4.68481 5467 ft 314 kts 284°
2026-04-30 09:56 52.20808 4.65033 6370 ft 316 kts 284°
2026-04-30 09:56 52.21377 4.61563 7239 ft 318 kts 285°
2026-04-30 09:56 52.22109 4.58134 8027 ft 322 kts 295°
2026-04-30 09:57 52.23295 4.55035 8772 ft 324 kts 313°
2026-04-30 09:57 52.24981 4.52599 9505 ft 324 kts 328°
2026-04-30 09:57 52.26887 4.50605 10234 ft 327 kts 333°
2026-04-30 09:57 52.28879 4.48700 10624 ft 343 kts 334°
2026-04-30 09:58 52.31022 4.46672 10762 ft 368 kts 333°
2026-04-30 09:58 52.33275 4.44503 11214 ft 379 kts 332°
2026-04-30 09:58 52.35620 4.42535 11873 ft 378 kts 345°
2026-04-30 09:58 52.38161 4.41517 12588 ft 376 kts 355°
2026-04-30 09:59 52.43362 4.40654 13966 ft 380 kts 359°
2026-04-30 09:59 52.48682 4.39975 15182 ft 386 kts 359°
2026-04-30 10:00 52.54091 4.39188 16297 ft 393 kts 358°
2026-04-30 10:00 52.56824 4.38766 16841 ft 396 kts 358°
2026-04-30 10:01 52.62327 4.37894 17904 ft 403 kts 358°
2026-04-30 10:01 52.65130 4.37443 18425 ft 406 kts 358°
2026-04-30 10:01 52.67943 4.36784 18894 ft 411 kts 352°
2026-04-30 10:02 52.73277 4.33051 19734 ft 428 kts 326°
2026-04-30 10:02 52.75476 4.29694 20157 ft 434 kts 311°
2026-04-30 10:02 52.77155 4.25531 20595 ft 439 kts 298°
2026-04-30 10:02 52.78334 4.20863 21009 ft 442 kts 290°
2026-04-30 10:03 52.79262 4.16067 21449 ft 444 kts 287°
2026-04-30 10:03 52.80135 4.11160 21901 ft 446 kts 287°
2026-04-30 10:03 52.81018 4.06236 22363 ft 448 kts 288°
2026-04-30 10:03 52.81935 4.01305 22823 ft 449 kts 288°
2026-04-30 10:04 52.82885 3.96353 23295 ft 451 kts 288°
2026-04-30 10:04 52.83857 3.91391 23744 ft 454 kts 289°
2026-04-30 10:04 52.84841 3.86416 24155 ft 457 kts 289°
2026-04-30 10:04 52.85821 3.81472 24511 ft 460 kts 289°
2026-04-30 10:05 52.86819 3.76432 24946 ft 461 kts 289°
2026-04-30 10:05 52.87818 3.71377 25344 ft 464 kts 289°
2026-04-30 10:05 52.88819 3.66291 25773 ft 464 kts 288°
2026-04-30 10:05 52.89819 3.61194 26214 ft 467 kts 288°
2026-04-30 10:06 52.90826 3.56043 26562 ft 470 kts 288°
2026-04-30 10:06 52.91835 3.50867 26967 ft 472 kts 288°
2026-04-30 10:06 52.92852 3.45637 27170 ft 478 kts 288°
2026-04-30 10:06 52.93852 3.40461 27548 ft 480 kts 288°
2026-04-30 10:07 52.94873 3.35176 28024 ft 480 kts 288°
2026-04-30 10:07 52.95896 3.29876 28331 ft 483 kts 288°
2026-04-30 10:07 52.96916 3.24576 28792 ft 483 kts 288°
2026-04-30 10:07 52.97935 3.19229 29076 ft 488 kts 287°
2026-04-30 10:08 52.98944 3.13843 29460 ft 489 kts 287°
2026-04-30 10:08 52.99957 3.08424 29696 ft 494 kts 287°
2026-04-30 10:08 53.00970 3.03026 30117 ft 494 kts 287°
2026-04-30 10:08 53.01995 2.97585 30631 ft 491 kts 287°
2026-04-30 10:09 53.03014 2.92162 31018 ft 490 kts 287°
2026-04-30 10:09 53.04033 2.86752 31397 ft 490 kts 287°
2026-04-30 10:09 53.05049 2.81357 31763 ft 488 kts 287°
2026-04-30 10:09 53.06060 2.75974 32138 ft 487 kts 287°
2026-04-30 10:10 53.07069 2.70584 32356 ft 490 kts 287°
2026-04-30 10:10 53.09084 2.59755 32404 ft 493 kts 287°
2026-04-30 10:11 53.11004 2.48814 32401 ft 491 kts 281°
2026-04-30 10:11 53.12116 2.37576 32398 ft 492 kts 276°
2026-04-30 10:12 53.12944 2.26270 32399 ft 491 kts 276°
2026-04-30 10:12 53.13796 2.15046 32398 ft 491 kts 276°
2026-04-30 10:13 53.14691 2.03745 32403 ft 492 kts 276°
2026-04-30 10:13 53.15590 1.92447 32395 ft 491 kts 276°
2026-04-30 10:14 53.16478 1.81133 32395 ft 492 kts 276°
2026-04-30 10:14 53.17779 1.64254 32395 ft 491 kts 276°
2026-04-30 10:15 53.18637 1.52927 32393 ft 491 kts 276°
2026-04-30 10:15 53.19479 1.41623 32385 ft 491 kts 275°
2026-04-30 10:16 53.20313 1.30319 32382 ft 491 kts 275°
2026-04-30 10:17 53.21543 1.13424 32379 ft 490 kts 275°
2026-04-30 10:17 53.22680 0.96432 32370 ft 490 kts 274°
2026-04-30 10:18 53.23452 0.85116 32368 ft 490 kts 274°
2026-04-30 10:19 53.24614 0.68210 32355 ft 490 kts 274°
2026-04-30 10:19 53.25380 0.56899 32348 ft 490 kts 274°
2026-04-30 10:20 53.26133 0.45591 32349 ft 489 kts 274°
2026-04-30 10:20 53.27243 0.28584 32339 ft 490 kts 274°
2026-04-30 10:21 53.27971 0.17246 32331 ft 490 kts 274°
2026-04-30 10:21 53.28684 0.05982 32331 ft 490 kts 274°
2026-04-30 10:22 53.29644 -0.05326 32330 ft 492 kts 276°
2026-04-30 10:22 53.30819 -0.16610 32323 ft 493 kts 277°
2026-04-30 10:23 53.32014 -0.27900 32323 ft 493 kts 277°
2026-04-30 10:23 53.33181 -0.39205 32323 ft 492 kts 277°
2026-04-30 10:24 53.34312 -0.50514 32320 ft 492 kts 276°
2026-04-30 10:24 53.35427 -0.61740 32318 ft 492 kts 276°
2026-04-30 10:25 53.36542 -0.73066 32319 ft 492 kts 276°
2026-04-30 10:25 53.37650 -0.84377 32314 ft 492 kts 276°
2026-04-30 10:26 53.38750 -0.95717 32311 ft 492 kts 276°
2026-04-30 10:26 53.39831 -1.07046 32309 ft 492 kts 276°
2026-04-30 10:27 53.40900 -1.18328 32304 ft 493 kts 276°
2026-04-30 10:27 53.41962 -1.29674 32297 ft 493 kts 276°
2026-04-30 10:28 53.43017 -1.41046 32298 ft 493 kts 276°
2026-04-30 10:28 53.44066 -1.52431 32296 ft 493 kts 275°
2026-04-30 10:29 53.45099 -1.63831 32289 ft 495 kts 275°
2026-04-30 10:29 53.46121 -1.75208 32282 ft 496 kts 275°
2026-04-30 10:30 53.47139 -1.86665 32281 ft 496 kts 275°
2026-04-30 10:30 53.47974 -1.96193 32286 ft 497 kts 275°
2026-04-30 10:31 53.48976 -2.07665 32288 ft 496 kts 275°
2026-04-30 10:31 53.49963 -2.19118 32269 ft 495 kts 274°
2026-04-30 10:32 53.50928 -2.30570 32257 ft 494 kts 274°
2026-04-30 10:32 53.51887 -2.42006 32258 ft 494 kts 274°
2026-04-30 10:33 53.52842 -2.53465 32255 ft 494 kts 274°
2026-04-30 10:33 53.53781 -2.64857 32260 ft 497 kts 274°
2026-04-30 10:34 53.54721 -2.76396 32251 ft 498 kts 274°
2026-04-30 10:34 53.55650 -2.87944 32242 ft 498 kts 274°
2026-04-30 10:35 53.56564 -2.99440 32244 ft 498 kts 274°
2026-04-30 10:35 53.57470 -3.10994 32273 ft 498 kts 273°
2026-04-30 10:36 53.58368 -3.22587 32239 ft 499 kts 273°
2026-04-30 10:36 53.59256 -3.34202 32232 ft 499 kts 273°
2026-04-30 10:37 53.60125 -3.45721 32229 ft 499 kts 273°
2026-04-30 10:37 53.60975 -3.57330 32228 ft 499 kts 272°
2026-04-30 10:38 53.61726 -3.68932 32219 ft 495 kts 271°
2026-04-30 10:38 53.62234 -3.80469 32208 ft 493 kts 270°
2026-04-30 10:39 53.62675 -3.91991 32214 ft 493 kts 270°
2026-04-30 10:39 53.63117 -4.03530 32198 ft 493 kts 270°
2026-04-30 10:40 53.63562 -4.15056 32201 ft 493 kts 270°
2026-04-30 10:40 53.63995 -4.26449 32196 ft 489 kts 270°
2026-04-30 10:41 53.64421 -4.37895 32182 ft 488 kts 270°
2026-04-30 10:41 53.64832 -4.49323 32182 ft 488 kts 270°
2026-04-30 10:42 53.65235 -4.60767 32181 ft 488 kts 270°
2026-04-30 10:42 53.65628 -4.72101 32193 ft 488 kts 270°
2026-04-30 10:43 53.66011 -4.83509 32210 ft 486 kts 271°
2026-04-30 10:43 53.66376 -4.94914 32209 ft 487 kts 270°
2026-04-30 10:44 53.66738 -5.06304 32208 ft 486 kts 270°
2026-04-30 10:44 53.67086 -5.17630 32204 ft 486 kts 269°
2026-04-30 10:45 53.67409 -5.29028 32205 ft 487 kts 270°
2026-04-30 10:45 53.67736 -5.40454 32195 ft 487 kts 270°
2026-04-30 10:46 53.67515 -5.51801 32202 ft 482 kts 258°
2026-04-30 10:46 53.66120 -5.62821 32202 ft 480 kts 253°
2026-04-30 10:47 53.64547 -5.73682 32197 ft 480 kts 253°
2026-04-30 10:47 53.63034 -5.84643 32191 ft 480 kts 254°
2026-04-30 10:48 53.61564 -5.95619 32188 ft 480 kts 254°
2026-04-30 10:48 53.60094 -6.06593 32188 ft 480 kts 254°
2026-04-30 10:49 53.58613 -6.17557 32186 ft 480 kts 254°
2026-04-30 10:49 53.57119 -6.28514 32176 ft 480 kts 253°
2026-04-30 10:50 53.55620 -6.39423 32176 ft 482 kts 253°
2026-04-30 10:50 53.54101 -6.50402 32162 ft 482 kts 253°
2026-04-30 10:51 53.52571 -6.61375 32167 ft 481 kts 253°
2026-04-30 10:51 53.51032 -6.72336 32156 ft 481 kts 253°
2026-04-30 10:52 53.49478 -6.83301 32140 ft 483 kts 252°
2026-04-30 10:52 53.47876 -6.94183 32141 ft 483 kts 252°
2026-04-30 10:53 53.46272 -7.05116 32133 ft 483 kts 252°
2026-04-30 10:53 53.44681 -7.16072 32132 ft 483 kts 252°
2026-04-30 10:54 53.43301 -7.25567 32139 ft 483 kts 251°
2026-04-30 10:54 53.41915 -7.35043 32123 ft 485 kts 251°
2026-04-30 10:55 53.40297 -7.46035 32117 ft 485 kts 251°
2026-04-30 10:55 53.38667 -7.57025 32118 ft 485 kts 251°
2026-04-30 10:56 53.37026 -7.68007 32108 ft 485 kts 251°
2026-04-30 10:56 53.35377 -7.78962 32111 ft 486 kts 250°
2026-04-30 10:57 53.33720 -7.89885 32104 ft 487 kts 250°
2026-04-30 10:57 53.32046 -8.00874 32104 ft 487 kts 250°
2026-04-30 10:58 53.30362 -8.11853 32101 ft 487 kts 250°
2026-04-30 10:58 53.28648 -8.22810 32134 ft 486 kts 249°
2026-04-30 10:59 53.26903 -8.33686 32099 ft 487 kts 249°
2026-04-30 10:59 53.25168 -8.44625 32098 ft 488 kts 249°
2026-04-30 11:00 53.23438 -8.55583 32099 ft 488 kts 249°
2026-04-30 11:00 53.21701 -8.66538 32099 ft 487 kts 249°
2026-04-30 11:01 53.19956 -8.77462 32105 ft 487 kts 249°
2026-04-30 11:01 53.18200 -8.88385 32097 ft 487 kts 249°
2026-04-30 11:02 53.16447 -8.99208 32099 ft 487 kts 249°
2026-04-30 11:02 53.14671 -9.10107 32100 ft 486 kts 249°
2026-04-30 11:03 53.12887 -9.20985 32127 ft 487 kts 248°
2026-04-30 11:04 53.10187 -9.37313 32096 ft 488 kts 248°
2026-04-30 11:04 53.08373 -9.48200 32438 ft 488 kts 248°
2026-04-30 11:04 53.07475 -9.53528 32763 ft 486 kts 248°
2026-04-30 11:05 53.06537 -9.58962 33105 ft 485 kts 247°
2026-04-30 11:05 53.05604 -9.64341 33417 ft 484 kts 248°
2026-04-30 11:05 53.04675 -9.69721 33755 ft 484 kts 248°
2026-04-30 11:05 53.03750 -9.75115 34015 ft 484 kts 248°
2026-04-30 11:06 53.02828 -9.80507 34071 ft 485 kts 248°
2026-04-30 11:06 53.00986 -9.91289 34087 ft 485 kts 248°
2026-04-30 11:07 52.99137 -10.02059 34081 ft 485 kts 248°
2026-04-30 11:07 52.97289 -10.12749 34080 ft 485 kts 247°
2026-04-30 11:08 52.95418 -10.23498 34089 ft 485 kts 248°
2026-04-30 11:08 52.93537 -10.34246 34081 ft 485 kts 247°
2026-04-30 11:09 52.91645 -10.44988 34078 ft 485 kts 247°
2026-04-30 11:09 52.89746 -10.55711 34078 ft 485 kts 247°
2026-04-30 11:10 52.87833 -10.66444 34081 ft 485 kts 247°
2026-04-30 11:10 52.85927 -10.77073 34072 ft 485 kts 247°
2026-04-30 11:11 52.83985 -10.87760 34069 ft 484 kts 246°
2026-04-30 11:11 52.81997 -10.98425 34070 ft 485 kts 246°
2026-04-30 11:12 52.80028 -11.09085 34076 ft 485 kts 246°
2026-04-30 11:12 52.78065 -11.19764 34071 ft 486 kts 247°
2026-04-30 11:13 52.76107 -11.30376 34065 ft 486 kts 247°
2026-04-30 11:13 52.74126 -11.41053 34065 ft 486 kts 247°
2026-04-30 11:14 52.72132 -11.51734 34071 ft 486 kts 246°
2026-04-30 11:14 52.70144 -11.62320 34094 ft 486 kts 247°
2026-04-30 11:15 52.68127 -11.72993 34063 ft 488 kts 247°
2026-04-30 11:15 52.66095 -11.83696 34065 ft 488 kts 247°
2026-04-30 11:16 52.64056 -11.94370 34065 ft 490 kts 246°
2026-04-30 11:16 52.62002 -12.05061 34062 ft 490 kts 246°
2026-04-30 11:17 52.59932 -12.15757 34057 ft 491 kts 246°
2026-04-30 11:17 52.57804 -12.26445 34059 ft 492 kts 246°
2026-04-30 11:18 52.55693 -12.37087 34062 ft 492 kts 246°
2026-04-30 11:18 52.52530 -12.53133 34065 ft 492 kts 246°
2026-04-30 11:19 52.50407 -12.63859 34066 ft 494 kts 246°
2026-04-30 11:19 52.48271 -12.74583 34062 ft 494 kts 246°
2026-04-30 11:20 52.46127 -12.85293 34061 ft 494 kts 246°
2026-04-30 11:20 52.43985 -12.95928 34059 ft 494 kts 246°
2026-04-30 11:21 52.41821 -13.06610 34066 ft 494 kts 246°
2026-04-30 11:21 52.40009 -13.15510 34058 ft 495 kts 246°
2026-04-30 11:22 52.37468 -13.27935 34059 ft 495 kts 246°
2026-04-30 11:22 52.35270 -13.38612 34059 ft 495 kts 246°
2026-04-30 11:23 52.33430 -13.47457 34055 ft 494 kts 246°
2026-04-30 11:24 52.30032 -13.63436 34061 ft 496 kts 246°
2026-04-30 11:24 52.27786 -13.74105 34059 ft 496 kts 246°
2026-04-30 11:25 52.24415 -13.90098 34057 ft 496 kts 246°
2026-04-30 11:26 52.19891 -14.11353 34057 ft 497 kts 247°
2026-04-30 11:26 52.17607 -14.22000 34056 ft 497 kts 247°
2026-04-30 11:27 52.15316 -14.32623 34061 ft 497 kts 246°
2026-04-30 11:27 52.13012 -14.43251 34072 ft 498 kts 248°
2026-04-30 11:28 52.09527 -14.59161 34062 ft 501 kts 248°
2026-04-30 11:29 52.07186 -14.69851 34064 ft 502 kts 247°
2026-04-30 11:29 52.03592 -14.85848 34072 ft 502 kts 247°
2026-04-30 11:30 52.00012 -15.01761 34070 ft 502 kts 248°
2026-04-30 11:31 51.97646 -15.12405 34061 ft 502 kts 249°
2026-04-30 11:31 51.95582 -15.23232 34067 ft 503 kts 252°
2026-04-30 11:32 51.93689 -15.34145 34065 ft 503 kts 253°
2026-04-30 11:32 51.91788 -15.45049 34070 ft 503 kts 252°
2026-04-30 11:33 51.88889 -15.61311 34075 ft 503 kts 252°
2026-04-30 11:33 51.86929 -15.72190 34075 ft 503 kts 252°
2026-04-30 11:34 51.84962 -15.83031 34080 ft 500 kts 253°
2026-04-30 11:34 51.83006 -15.93753 34080 ft 499 kts 253°
2026-04-30 11:35 51.81036 -16.04513 34083 ft 499 kts 252°
2026-04-30 11:35 51.79055 -16.15260 34092 ft 499 kts 252°
2026-04-30 11:36 51.77063 -16.25992 34087 ft 497 kts 254°
2026-04-30 11:36 51.75072 -16.36629 34094 ft 493 kts 254°
2026-04-30 11:37 51.73064 -16.47167 34096 ft 494 kts 253°
2026-04-30 11:37 51.71028 -16.57746 34101 ft 494 kts 253°
2026-04-30 11:38 51.69008 -16.68324 34095 ft 493 kts 254°
2026-04-30 11:38 51.67000 -16.78825 34105 ft 488 kts 255°
2026-04-30 11:39 51.65009 -16.89226 34112 ft 488 kts 254°
2026-04-30 11:39 51.62994 -16.99680 34112 ft 488 kts 254°
2026-04-30 11:40 51.60971 -17.10111 34115 ft 488 kts 254°
2026-04-30 11:40 51.58947 -17.20487 34113 ft 489 kts 254°
2026-04-30 11:41 51.56899 -17.30928 34119 ft 490 kts 254°
2026-04-30 11:41 51.54839 -17.41377 34124 ft 490 kts 254°
2026-04-30 11:42 51.52772 -17.51802 34123 ft 490 kts 254°
2026-04-30 11:42 51.50693 -17.62210 34123 ft 488 kts 255°
2026-04-30 11:43 51.48613 -17.72480 34127 ft 487 kts 254°
2026-04-30 11:43 51.46491 -17.82789 34132 ft 486 kts 254°
2026-04-30 11:44 51.44383 -17.93112 34141 ft 486 kts 254°
2026-04-30 11:44 51.42282 -18.03418 34125 ft 486 kts 255°
2026-04-30 11:45 51.40174 -18.13686 34147 ft 485 kts 255°
2026-04-30 11:45 51.38066 -18.23937 34149 ft 484 kts 256°
2026-04-30 11:46 51.35954 -18.34178 34149 ft 484 kts 256°
2026-04-30 11:46 51.33845 -18.44342 34149 ft 484 kts 255°
2026-04-30 11:47 51.31711 -18.54540 34150 ft 481 kts 255°
2026-04-30 11:47 51.29578 -18.64659 34163 ft 480 kts 255°
2026-04-30 11:48 51.27451 -18.74768 34160 ft 480 kts 255°
2026-04-30 11:48 51.25327 -18.84801 34169 ft 480 kts 255°
2026-04-30 11:49 51.23176 -18.94872 34156 ft 477 kts 255°
2026-04-30 11:49 51.20991 -19.04826 34168 ft 474 kts 255°
2026-04-30 11:50 51.18820 -19.14779 34168 ft 474 kts 255°
2026-04-30 11:50 51.16681 -19.24650 34176 ft 474 kts 255°
2026-04-30 11:51 51.14519 -19.34606 34170 ft 477 kts 255°
2026-04-30 11:51 51.12343 -19.44546 34178 ft 473 kts 255°
2026-04-30 11:52 51.10173 -19.54433 34177 ft 473 kts 255°
2026-04-30 11:52 51.08010 -19.64260 34179 ft 473 kts 255°
2026-04-30 11:53 51.05824 -19.74131 34179 ft 473 kts 255°
2026-04-30 11:53 51.03627 -19.84001 34177 ft 473 kts 255°
2026-04-30 11:54 51.01424 -19.93851 34188 ft 473 kts 255°
2026-04-30 11:54 50.99400 -20.03764 34192 ft 470 kts 259°
2026-04-30 11:55 50.97844 -20.13759 34200 ft 469 kts 261°
2026-04-30 11:55 50.96372 -20.23844 34195 ft 467 kts 261°
2026-04-30 11:56 50.94882 -20.33834 34195 ft 464 kts 260°
2026-04-30 11:56 50.93370 -20.43788 34198 ft 464 kts 260°
2026-04-30 11:57 50.91845 -20.53734 34198 ft 464 kts 260°
2026-04-30 11:57 50.90318 -20.63623 34203 ft 464 kts 260°
2026-04-30 11:58 50.88778 -20.73531 34201 ft 461 kts 259°
2026-04-30 11:58 50.87236 -20.83389 34208 ft 461 kts 259°
2026-04-30 11:59 50.85697 -20.93198 34208 ft 461 kts 259°
2026-04-30 11:59 50.84142 -21.03040 34208 ft 461 kts 259°
2026-04-30 12:00 50.82579 -21.12871 34209 ft 460 kts 259°
2026-04-30 12:00 50.81010 -21.22648 34220 ft 456 kts 258°
2026-04-30 12:01 50.79425 -21.32284 34219 ft 453 kts 258°
2026-04-30 12:01 50.77838 -21.41854 34219 ft 452 kts 258°
2026-04-30 12:02 50.76262 -21.51473 34222 ft 452 kts 258°
2026-04-30 12:02 50.74688 -21.61074 34221 ft 450 kts 258°
2026-04-30 12:03 50.72325 -21.75401 34224 ft 449 kts 258°
2026-04-30 12:04 50.70753 -21.84889 34229 ft 449 kts 258°
2026-04-30 12:04 50.69162 -21.94421 34229 ft 449 kts 258°
2026-04-30 12:05 50.67563 -22.03938 34230 ft 447 kts 258°
2026-04-30 12:05 50.65964 -22.13405 34231 ft 446 kts 258°
2026-04-30 12:06 50.64360 -22.22855 34243 ft 446 kts 258°
2026-04-30 12:06 50.62759 -22.32239 34237 ft 446 kts 258°
2026-04-30 12:07 50.61138 -22.41681 34235 ft 446 kts 258°
2026-04-30 12:07 50.59513 -22.51097 34234 ft 444 kts 257°
2026-04-30 12:08 50.57850 -22.60460 34244 ft 444 kts 257°
2026-04-30 12:08 50.56183 -22.69811 34249 ft 443 kts 257°
2026-04-30 12:09 50.54534 -22.79156 34242 ft 443 kts 257°
2026-04-30 12:09 50.52887 -22.88499 34240 ft 443 kts 257°
2026-04-30 12:10 50.51247 -22.97757 34248 ft 441 kts 257°
2026-04-30 12:10 50.49595 -23.07036 34249 ft 441 kts 257°
2026-04-30 12:11 50.47933 -23.16316 34248 ft 441 kts 257°
2026-04-30 12:11 50.46264 -23.25591 34251 ft 441 kts 257°
2026-04-30 12:12 50.44600 -23.34791 34249 ft 441 kts 257°
2026-04-30 12:12 50.42918 -23.44042 34252 ft 441 kts 257°
2026-04-30 12:13 50.41230 -23.53285 34254 ft 441 kts 257°
2026-04-30 12:13 50.39532 -23.62530 34257 ft 441 kts 257°
2026-04-30 12:14 50.37827 -23.71764 34254 ft 441 kts 256°
2026-04-30 12:14 50.36401 -23.79431 34254 ft 441 kts 256°
2026-04-30 12:15 50.34641 -23.88628 34260 ft 441 kts 256°
2026-04-30 12:15 50.32892 -23.97825 34260 ft 441 kts 256°
2026-04-30 12:16 50.31153 -24.07036 34257 ft 441 kts 256°
2026-04-30 12:16 50.29415 -24.16229 34260 ft 440 kts 256°
2026-04-30 12:17 50.26806 -24.29946 34260 ft 441 kts 256°
2026-04-30 12:17 50.25050 -24.39124 34260 ft 441 kts 256°
2026-04-30 12:18 50.23284 -24.48308 34265 ft 441 kts 256°
2026-04-30 12:18 50.21513 -24.57473 34265 ft 441 kts 256°
2026-04-30 12:19 50.19733 -24.66637 34266 ft 441 kts 256°
2026-04-30 12:19 50.17945 -24.75800 34268 ft 441 kts 256°
2026-04-30 12:20 50.16150 -24.84957 34268 ft 441 kts 255°
2026-04-30 12:20 50.14359 -24.94047 34270 ft 441 kts 255°
2026-04-30 12:21 50.12547 -25.03192 34258 ft 441 kts 255°
2026-04-30 12:21 50.10685 -25.12325 34267 ft 442 kts 255°
2026-04-30 12:22 50.08833 -25.21450 34267 ft 442 kts 255°
2026-04-30 12:22 50.06994 -25.30576 34266 ft 442 kts 255°
2026-04-30 12:23 50.05166 -25.39638 34269 ft 442 kts 255°
2026-04-30 12:23 50.03320 -25.48755 34280 ft 442 kts 255°
2026-04-30 12:24 50.01465 -25.57869 34270 ft 442 kts 255°
2026-04-30 12:24 49.99605 -25.66965 34278 ft 442 kts 255°
2026-04-30 12:25 49.97732 -25.76077 34281 ft 442 kts 255°
2026-04-30 12:25 49.95854 -25.85178 34277 ft 442 kts 255°
2026-04-30 12:26 49.93979 -25.94226 34276 ft 444 kts 254°
2026-04-30 12:26 49.92073 -26.03374 34272 ft 445 kts 254°
2026-04-30 12:27 49.90162 -26.12504 34272 ft 445 kts 254°
2026-04-30 12:27 49.88255 -26.21578 34281 ft 445 kts 254°
2026-04-30 12:28 49.86309 -26.30684 34273 ft 445 kts 253°
2026-04-30 12:28 49.84334 -26.39795 34276 ft 446 kts 253°
2026-04-30 12:29 49.82374 -26.48917 34283 ft 446 kts 253°
2026-04-30 12:29 49.80421 -26.58034 34281 ft 446 kts 253°
2026-04-30 12:30 49.78464 -26.67142 34282 ft 446 kts 253°
2026-04-30 12:30 49.76499 -26.76245 34283 ft 446 kts 253°
2026-04-30 12:31 49.74535 -26.85299 34284 ft 447 kts 253°
2026-04-30 12:31 49.72550 -26.94407 34285 ft 447 kts 253°
2026-04-30 12:32 49.70559 -27.03508 34284 ft 447 kts 253°
2026-04-30 12:32 49.68557 -27.12614 34275 ft 447 kts 253°
2026-04-30 12:33 49.66548 -27.21717 34286 ft 448 kts 253°
2026-04-30 12:33 49.64542 -27.30765 34284 ft 448 kts 253°
2026-04-30 12:34 49.62512 -27.39877 34287 ft 448 kts 252°
2026-04-30 12:34 49.60472 -27.48970 34288 ft 448 kts 252°
2026-04-30 12:35 49.58388 -27.58042 34286 ft 449 kts 252°
2026-04-30 12:35 49.56311 -27.67134 34287 ft 450 kts 252°
2026-04-30 12:36 49.54244 -27.76231 34290 ft 450 kts 252°
2026-04-30 12:36 49.52188 -27.85266 34289 ft 450 kts 252°
2026-04-30 12:37 49.50109 -27.94367 34286 ft 450 kts 252°
2026-04-30 12:37 49.48020 -28.03469 34292 ft 452 kts 252°
2026-04-30 12:38 49.45917 -28.12589 34289 ft 452 kts 252°
2026-04-30 12:38 49.43810 -28.21693 34290 ft 452 kts 252°
2026-04-30 12:39 49.41708 -28.30734 34289 ft 452 kts 252°
2026-04-30 12:39 49.39584 -28.39827 34291 ft 452 kts 251°
2026-04-30 12:40 49.37454 -28.48912 34292 ft 452 kts 251°
2026-04-30 12:40 49.35316 -28.57995 34293 ft 452 kts 251°
2026-04-30 12:41 49.33171 -28.67064 34293 ft 452 kts 251°
2026-04-30 12:41 49.30985 -28.76096 34283 ft 452 kts 251°
2026-04-30 12:42 49.28805 -28.85102 34289 ft 453 kts 251°
2026-04-30 12:42 49.26627 -28.94165 34291 ft 453 kts 251°
2026-04-30 12:43 49.24449 -29.03224 34291 ft 453 kts 251°
2026-04-30 12:43 49.22265 -29.12274 34289 ft 453 kts 251°
2026-04-30 12:44 49.20069 -29.21334 34291 ft 454 kts 251°
2026-04-30 12:44 49.17868 -29.30377 34291 ft 452 kts 251°
2026-04-30 12:45 49.15673 -29.39314 34289 ft 451 kts 250°
2026-04-30 12:45 49.13471 -29.48278 34291 ft 451 kts 250°
2026-04-30 12:46 49.11265 -29.57262 34286 ft 451 kts 250°
2026-04-30 12:46 49.09050 -29.66229 34289 ft 452 kts 250°
2026-04-30 12:47 49.06824 -29.75192 34293 ft 452 kts 250°
2026-04-30 12:47 49.04585 -29.84152 34293 ft 451 kts 249°
2026-04-30 12:48 49.01692 -29.92663 34288 ft 453 kts 240°
2026-04-30 12:48 48.98290 -30.00753 34290 ft 454 kts 238°
2026-04-30 12:49 48.94888 -30.08786 34292 ft 455 kts 238°
2026-04-30 12:49 48.91495 -30.16932 34297 ft 456 kts 239°
2026-04-30 12:50 48.88116 -30.25089 34291 ft 455 kts 239°
2026-04-30 12:50 48.84730 -30.33244 34291 ft 455 kts 239°
2026-04-30 12:51 48.81348 -30.41363 34289 ft 455 kts 239°
2026-04-30 12:51 48.77973 -30.49439 34289 ft 456 kts 239°
2026-04-30 12:52 48.74579 -30.57534 34290 ft 455 kts 238°
2026-04-30 12:52 48.71176 -30.65627 34288 ft 456 kts 238°
2026-04-30 12:53 48.67768 -30.73707 34289 ft 455 kts 238°
2026-04-30 12:53 48.64353 -30.81775 34289 ft 454 kts 238°
2026-04-30 12:54 48.60951 -30.89783 34290 ft 454 kts 238°
2026-04-30 12:54 48.57508 -30.97820 34290 ft 456 kts 237°
2026-04-30 12:55 48.54039 -31.05856 34290 ft 457 kts 238°
2026-04-30 12:55 48.50579 -31.13905 34289 ft 457 kts 238°
2026-04-30 12:56 48.47125 -31.21947 34284 ft 457 kts 238°
2026-04-30 12:56 48.43664 -31.29983 34282 ft 457 kts 237°
2026-04-30 12:57 48.40184 -31.38031 34283 ft 458 kts 237°
2026-04-30 12:57 48.36734 -31.45998 34284 ft 457 kts 237°
2026-04-30 12:58 48.33249 -31.54019 34281 ft 458 kts 237°
2026-04-30 12:58 48.29755 -31.62034 34283 ft 458 kts 237°
2026-04-30 12:59 48.26252 -31.70029 34284 ft 459 kts 237°
2026-04-30 12:59 48.22749 -31.78023 34286 ft 459 kts 237°
2026-04-30 13:00 48.19242 -31.86006 34282 ft 458 kts 237°
2026-04-30 13:00 48.15725 -31.93983 34284 ft 458 kts 236°
2026-04-30 13:01 48.12790 -32.00589 34276 ft 459 kts 236°
2026-04-30 13:01 48.08632 -32.09823 34275 ft 460 kts 236°
2026-04-30 13:02 48.05646 -32.16512 34277 ft 461 kts 236°
2026-04-30 13:02 48.01517 -32.25775 34276 ft 460 kts 236°
2026-04-30 13:03 47.98554 -32.32388 34276 ft 461 kts 236°
2026-04-30 13:03 47.94982 -32.40343 34275 ft 461 kts 236°
2026-04-30 13:04 47.91410 -32.48292 34275 ft 461 kts 236°
2026-04-30 13:04 47.87832 -32.56226 34274 ft 461 kts 236°
2026-04-30 13:05 47.84247 -32.64138 34275 ft 460 kts 235°
2026-04-30 13:06 47.78863 -32.75995 34267 ft 460 kts 235°
2026-04-30 13:06 47.75295 -32.83822 34266 ft 460 kts 235°
2026-04-30 13:07 47.71698 -32.91687 34267 ft 459 kts 234°
2026-04-30 13:07 47.68097 -32.99522 34266 ft 459 kts 234°
2026-04-30 13:08 47.64471 -33.07335 34262 ft 458 kts 234°
2026-04-30 13:08 47.60846 -33.15130 34269 ft 459 kts 234°
2026-04-30 13:09 47.57229 -33.22931 34271 ft 459 kts 234°
2026-04-30 13:09 47.53611 -33.30715 34264 ft 459 kts 234°
2026-04-30 13:10 47.49989 -33.38513 34266 ft 459 kts 234°
2026-04-30 13:10 47.46388 -33.46238 34258 ft 460 kts 234°
2026-04-30 13:11 47.42758 -33.54000 34260 ft 459 kts 234°
2026-04-30 13:11 47.39114 -33.61767 34258 ft 459 kts 234°
2026-04-30 13:12 47.35468 -33.69515 34260 ft 459 kts 234°
2026-04-30 13:12 47.31810 -33.77267 34258 ft 459 kts 234°
2026-04-30 13:13 47.26328 -33.88829 34253 ft 461 kts 234°
2026-04-30 13:14 47.20813 -34.00440 34253 ft 461 kts 233°
2026-04-30 13:14 47.15247 -34.11984 34256 ft 461 kts 233°
2026-04-30 13:15 47.09686 -34.23513 34248 ft 461 kts 233°
2026-04-30 13:16 47.05989 -34.31205 34246 ft 461 kts 233°
2026-04-30 13:16 47.02289 -34.38887 34243 ft 461 kts 233°
2026-04-30 13:17 46.96748 -34.50327 34245 ft 461 kts 232°
2026-04-30 13:18 46.91162 -34.61794 34240 ft 460 kts 232°
2026-04-30 13:18 46.85581 -34.73232 34244 ft 460 kts 232°
2026-04-30 13:19 46.81851 -34.80851 34239 ft 461 kts 232°
2026-04-30 13:19 46.78142 -34.88409 34238 ft 461 kts 231°
2026-04-30 13:20 46.74394 -34.96011 34235 ft 461 kts 232°
2026-04-30 13:20 46.70638 -35.03588 34235 ft 461 kts 231°
2026-04-30 13:21 46.66858 -35.11133 34234 ft 461 kts 231°
2026-04-30 13:22 46.61229 -35.22415 34233 ft 461 kts 232°
2026-04-30 13:22 46.55584 -35.33742 34236 ft 461 kts 231°
2026-04-30 13:23 46.49923 -35.45048 34234 ft 461 kts 231°
2026-04-30 13:24 46.42371 -35.60044 34229 ft 462 kts 231°
2026-04-30 13:25 46.34769 -35.75057 34224 ft 462 kts 231°
2026-04-30 13:26 46.25232 -35.93775 34223 ft 463 kts 230°
2026-04-30 13:28 46.15644 -36.12369 34220 ft 463 kts 230°
2026-04-30 13:28 46.09876 -36.23544 34214 ft 462 kts 230°
2026-04-30 13:29 46.02214 -36.38345 34211 ft 462 kts 230°
2026-04-30 13:31 45.92590 -36.56823 34209 ft 461 kts 229°
2026-04-30 13:32 45.82962 -36.75186 34208 ft 461 kts 229°
2026-04-30 13:33 45.75212 -36.89880 34197 ft 461 kts 229°
2026-04-30 13:34 45.69370 -37.00835 34200 ft 461 kts 228°
2026-04-30 13:35 45.61599 -37.15370 34197 ft 462 kts 229°
2026-04-30 13:36 45.53788 -37.29973 34193 ft 463 kts 228°
2026-04-30 13:36 45.47906 -37.40919 34187 ft 463 kts 228°
2026-04-30 13:37 45.42014 -37.51840 34197 ft 463 kts 228°
2026-04-30 13:38 45.36143 -37.62681 34184 ft 462 kts 227°
2026-04-30 13:39 45.28269 -37.77155 34185 ft 462 kts 227°
2026-04-30 13:40 45.22350 -37.87984 34167 ft 462 kts 227°
2026-04-30 13:40 45.18401 -37.95117 34169 ft 462 kts 227°
2026-04-30 13:41 45.14431 -38.02293 34183 ft 462 kts 227°
2026-04-30 13:41 45.10470 -38.09472 34167 ft 462 kts 227°
2026-04-30 13:42 45.06508 -38.16645 34169 ft 462 kts 227°
2026-04-30 13:42 45.00563 -38.27377 34164 ft 462 kts 227°
2026-04-30 13:43 44.96582 -38.34538 34169 ft 464 kts 227°
2026-04-30 13:43 44.92610 -38.41664 34163 ft 464 kts 227°
2026-04-30 13:44 44.88614 -38.48819 34162 ft 464 kts 227°
2026-04-30 13:44 44.84608 -38.55971 34180 ft 464 kts 227°
2026-04-30 13:45 44.78560 -38.66734 34157 ft 467 kts 227°
2026-04-30 13:46 44.74526 -38.73894 34149 ft 466 kts 226°
2026-04-30 13:46 44.70493 -38.81025 34153 ft 466 kts 226°
2026-04-30 13:47 44.66429 -38.88129 34149 ft 466 kts 226°
2026-04-30 13:47 44.63055 -38.94033 34145 ft 466 kts 226°
2026-04-30 13:48 44.59005 -39.01139 34145 ft 466 kts 226°
2026-04-30 13:48 44.54296 -39.09393 34150 ft 466 kts 226°
2026-04-30 13:49 44.50927 -39.15286 34140 ft 465 kts 226°
2026-04-30 13:49 44.46871 -39.22362 34140 ft 465 kts 226°
2026-04-30 13:50 44.42809 -39.29430 34135 ft 465 kts 226°
2026-04-30 13:50 44.36687 -39.40045 34126 ft 469 kts 227°
2026-04-30 13:51 44.32588 -39.47136 34122 ft 468 kts 226°
2026-04-30 13:51 44.28488 -39.54209 34139 ft 468 kts 226°
2026-04-30 13:52 44.24405 -39.61234 34126 ft 470 kts 227°
2026-04-30 13:52 44.20275 -39.68323 34135 ft 471 kts 227°
2026-04-30 13:53 44.16112 -39.75365 34125 ft 470 kts 224°
2026-04-30 13:53 44.11460 -39.81679 34126 ft 466 kts 218°
2026-04-30 13:54 44.06557 -39.87581 34115 ft 466 kts 217°
2026-04-30 13:54 44.01691 -39.93445 34107 ft 466 kts 218°
2026-04-30 13:55 43.96812 -39.99388 34115 ft 466 kts 218°
2026-04-30 13:55 43.91945 -40.05328 34104 ft 465 kts 219°
2026-04-30 13:56 43.87096 -40.11258 34103 ft 465 kts 219°
2026-04-30 13:56 43.82240 -40.17182 34105 ft 465 kts 219°
2026-04-30 13:57 43.77405 -40.23059 34105 ft 465 kts 219°
2026-04-30 13:57 43.72540 -40.28957 34097 ft 465 kts 219°
2026-04-30 13:58 43.65237 -40.37783 34102 ft 464 kts 219°
2026-04-30 13:59 43.60358 -40.43656 34094 ft 464 kts 220°
2026-04-30 13:59 43.55519 -40.49474 34093 ft 464 kts 220°
2026-04-30 14:00 43.50643 -40.55308 34083 ft 464 kts 220°
2026-04-30 14:00 43.43318 -40.64016 34085 ft 463 kts 221°
2026-04-30 14:01 43.38445 -40.69812 34087 ft 463 kts 221°
2026-04-30 14:01 43.33583 -40.75614 34089 ft 463 kts 220°
2026-04-30 14:02 43.28711 -40.81394 34081 ft 463 kts 221°
2026-04-30 14:02 43.23879 -40.87126 34081 ft 461 kts 221°
2026-04-30 14:03 43.19026 -40.92875 34085 ft 461 kts 221°
2026-04-30 14:03 43.14169 -40.98611 34076 ft 461 kts 221°
2026-04-30 14:04 43.09323 -41.04312 34084 ft 458 kts 221°
2026-04-30 14:04 43.04477 -41.09998 34076 ft 458 kts 221°
2026-04-30 14:05 42.99638 -41.15680 34078 ft 458 kts 221°
2026-04-30 14:05 42.94798 -41.21345 34072 ft 457 kts 221°
2026-04-30 14:06 42.87569 -41.29754 34079 ft 457 kts 222°
2026-04-30 14:07 42.80291 -41.38176 34072 ft 457 kts 222°
2026-04-30 14:08 42.73037 -41.46584 34078 ft 457 kts 222°
2026-04-30 14:08 42.65770 -41.54978 34080 ft 456 kts 222°
2026-04-30 14:09 42.60949 -41.60533 34070 ft 458 kts 222°
2026-04-30 14:10 42.53648 -41.68928 34066 ft 459 kts 222°
2026-04-30 14:10 42.48780 -41.74514 34077 ft 458 kts 222°
2026-04-30 14:11 42.43906 -41.80092 34074 ft 458 kts 222°
2026-04-30 14:11 42.39033 -41.85656 34079 ft 458 kts 222°
2026-04-30 14:12 42.34181 -41.91184 34075 ft 458 kts 222°
2026-04-30 14:12 42.29315 -41.96715 34075 ft 456 kts 223°
2026-04-30 14:13 42.24445 -42.02222 34075 ft 456 kts 223°
2026-04-30 14:13 42.19564 -42.07710 34075 ft 456 kts 223°
2026-04-30 14:14 42.14693 -42.13198 34072 ft 456 kts 223°
2026-04-30 14:14 42.09853 -42.18654 34072 ft 456 kts 223°
2026-04-30 14:15 42.05002 -42.24111 34075 ft 453 kts 223°
2026-04-30 14:15 42.00162 -42.29546 34068 ft 452 kts 223°
2026-04-30 14:16 41.95334 -42.34956 34078 ft 451 kts 223°
2026-04-30 14:16 41.90509 -42.40352 34077 ft 451 kts 223°
2026-04-30 14:17 41.85674 -42.45748 34064 ft 451 kts 223°
2026-04-30 14:17 41.80884 -42.51083 34074 ft 450 kts 223°
2026-04-30 14:18 41.76064 -42.56439 34078 ft 450 kts 223°
2026-04-30 14:18 41.68834 -42.64455 34072 ft 449 kts 223°
2026-04-30 14:19 41.61619 -42.72422 34438 ft 448 kts 223°
2026-04-30 14:19 41.59198 -42.75072 34719 ft 448 kts 223°
2026-04-30 14:20 41.56784 -42.77714 34972 ft 449 kts 223°
2026-04-30 14:20 41.54369 -42.80360 35215 ft 449 kts 223°
2026-04-30 14:20 41.49539 -42.85659 35722 ft 449 kts 223°
2026-04-30 14:21 41.47123 -42.88310 35963 ft 450 kts 223°
2026-04-30 14:21 41.44709 -42.90957 36050 ft 451 kts 223°
2026-04-30 14:22 41.37462 -42.98887 36064 ft 451 kts 223°
2026-04-30 14:22 41.30193 -43.06818 36072 ft 450 kts 223°
2026-04-30 14:23 41.20500 -43.17356 36073 ft 449 kts 223°
2026-04-30 14:24 41.13241 -43.25220 36072 ft 448 kts 223°
2026-04-30 14:25 41.03600 -43.35630 36069 ft 448 kts 222°
2026-04-30 14:26 40.96342 -43.43427 36067 ft 448 kts 222°
2026-04-30 14:27 40.89067 -43.51187 36064 ft 447 kts 222°
2026-04-30 14:27 40.84216 -43.56371 36068 ft 448 kts 222°
2026-04-30 14:28 40.76951 -43.64128 36054 ft 447 kts 222°
2026-04-30 14:28 40.72103 -43.69292 36059 ft 448 kts 222°
2026-04-30 14:29 40.63224 -43.78722 36064 ft 447 kts 221°
2026-04-30 14:31 40.50308 -43.92381 36063 ft 447 kts 221°
2026-04-30 14:31 40.43007 -44.00073 36060 ft 449 kts 221°
2026-04-30 14:32 40.35691 -44.07756 36050 ft 449 kts 221°
2026-04-30 14:33 40.30826 -44.12837 36048 ft 450 kts 221°
2026-04-30 14:33 40.23453 -44.20503 36046 ft 452 kts 221°
2026-04-30 14:34 40.18529 -44.25633 36050 ft 452 kts 221°
2026-04-30 14:34 40.13605 -44.30759 36046 ft 453 kts 221°
2026-04-30 14:35 40.07029 -44.37588 36043 ft 453 kts 221°
2026-04-30 14:36 40.01286 -44.43537 36035 ft 453 kts 220°
2026-04-30 14:36 39.97140 -44.47824 36036 ft 453 kts 220°
2026-04-30 14:37 39.92225 -44.52898 36033 ft 453 kts 220°
2026-04-30 14:37 39.87279 -44.57994 36030 ft 453 kts 220°
2026-04-30 14:38 39.82325 -44.63088 36028 ft 453 kts 220°
2026-04-30 14:38 39.77372 -44.68171 36029 ft 453 kts 220°
2026-04-30 14:39 39.72422 -44.73242 36017 ft 453 kts 220°
2026-04-30 14:39 39.67471 -44.78300 36024 ft 453 kts 220°
2026-04-30 14:40 39.60017 -44.85858 36020 ft 453 kts 220°
2026-04-30 14:40 39.55059 -44.90894 36019 ft 453 kts 220°
2026-04-30 14:41 39.50126 -44.95899 36013 ft 453 kts 220°
2026-04-30 14:41 39.45161 -45.00930 36011 ft 452 kts 219°
2026-04-30 14:42 39.40188 -45.05955 36012 ft 453 kts 219°
2026-04-30 14:42 39.35222 -45.10976 36004 ft 452 kts 219°
2026-04-30 14:43 39.30264 -45.15985 36008 ft 452 kts 219°
2026-04-30 14:43 39.25288 -45.20988 36005 ft 453 kts 219°
2026-04-30 14:44 39.20332 -45.25963 36002 ft 453 kts 219°
2026-04-30 14:44 39.15343 -45.30966 36000 ft 453 kts 219°
2026-04-30 14:45 39.10353 -45.35955 35992 ft 453 kts 219°
2026-04-30 14:45 39.05358 -45.40943 35990 ft 453 kts 219°
2026-04-30 14:46 39.00359 -45.45920 35986 ft 454 kts 219°
2026-04-30 14:46 38.95338 -45.50890 35994 ft 456 kts 219°
2026-04-30 14:47 38.90307 -45.55870 35986 ft 455 kts 219°
2026-04-30 14:47 38.85320 -45.60811 35978 ft 455 kts 219°
2026-04-30 14:48 38.80286 -45.65797 35978 ft 457 kts 219°
2026-04-30 14:48 38.75250 -45.70783 35980 ft 457 kts 219°
2026-04-30 14:49 38.70208 -45.75758 35972 ft 457 kts 218°
2026-04-30 14:49 38.65153 -45.80734 35973 ft 458 kts 218°
2026-04-30 14:50 38.57563 -45.88182 35970 ft 459 kts 218°
2026-04-30 14:51 38.49984 -45.95603 35967 ft 459 kts 218°
2026-04-30 14:52 38.42367 -46.03050 35955 ft 460 kts 218°
2026-04-30 14:52 38.34721 -46.10489 35958 ft 461 kts 218°
2026-04-30 14:53 38.27085 -46.17867 35952 ft 461 kts 218°